Regional Weather Roundup
Issued by NWS

Home | Current Version | Previous Version | Graphics & Text | Print | Product List | Glossary On
Versions: 1 2 3 4 5 6 7 8 9 10 11 12 13 14 15 16 17 18 19 20 21 22 23 24 25 26 27 28 29 30 31 32 33 34 35 36 37 38 39 40 41 42 43 44 45 46 47 48 49 50
000
ASUS43 KDMX 301107
RWRIA

WEATHER ROUNDUP FOR IOWA
NATIONAL WEATHER SERVICE DES MOINES IA
600 AM CDT TUE JUN 30 2015

NOTE: "FAIR" INDICATES FEW OR NO CLOUDS BELOW 12,000 FEET WITH NO
SIGNIFICANT WEATHER AND/OR OBSTRUCTIONS TO VISIBILITY.

* - THESE STATIONS ARE NOT NWS STATIONS...THUS NOT UNDER NWS
QUALITY CONTROL.  THEY ALSO DO NOT REPORT WEATHER SUCH
AS PRECIPITATION OR FOG.

IAZ001>003-012>014-020>022-031>034-043>046-301200-
   NORTHWEST IOWA

CITY           SKY/WX    TMP DP  RH WIND       PRES   REMARKS
CARROLL *      PTCLDY    63  63 100 NW6       29.91R FOG
CHEROKEE *       N/A     61  61 100 CALM      29.92S FOG
DENISON *      PTCLDY    61  61 100 CALM      29.91R FOG
LE MARS *      MOCLDY    63  63 100 N3        29.95R FOG
ORANGE CITY *  CLEAR     59  57  94 NW3       29.95R FOG
SHELDON *      PTCLDY    59  59 100 N6        29.93R FOG
SIOUX CITY     PTCLDY    66  60  81 NW3       29.93R HAZE
SPENCER        CLOUDY    60  58  92 NW7       29.92R FOG
STORM LAKE *   CLEAR     61  59  94 NW5       29.93S FOG
$$

IAZ055>058-069>071-079>083-090>094-301200-
   SOUTHWEST IOWA

CITY           SKY/WX    TMP DP  RH WIND       PRES   REMARKS
ATLANTIC *     PTCLDY    63  61  94 CALM      29.92R FOG
AUDUBON *      CLEAR     64  61  88 CALM      29.92S
CLARINDA *     PTCLDY    64  64 100 CALM      29.93R
COUNCIL BLFS * PTCLDY    66  63  88 SW5       29.92R
CRESTON *      PTCLDY    64  61  88 W6        29.91S
HARLAN  *      CLEAR     61  61 100 MISG      29.95R FOG
LAMONI         PTCLDY    67  61  81 W7        29.90S
RED OAK *      MOCLDY    63  63 100 CALM      29.91S
SHENANDOAH *   PTCLDY    63  61  94 CALM      29.92R
$$

IAZ047>049-059>061-072>074-084-301200-
   CENTRAL IOWA

CITY           SKY/WX    TMP DP  RH WIND       PRES   REMARKS
AMES           CLEAR     65  61  87 NW9       29.87R FOG
ANKENY *       CLEAR     64  64 100 W6        29.87R
CHARITON *     CLEAR     64  63  94 W6        29.88S
DES MOINES     CLOUDY    67  61  81 W3        29.87R HAZE
GRINNELL*      CLEAR     64  61  88 W6        29.86S
KNOXVILLE *    CLEAR     64  61  88 W9        29.86R
MARSHALLTOWN   CLEAR     62  61  96 NW8       29.85R FOG
PELLA *        CLEAR     66  66 100 W6        29.87S
PERRY *          N/A     64  63  94 NW6       29.89R FOG
$$

IAZ004>006-015-016-023>025-035-036-301200-
   NORTH CENTRAL IOWA

CITY           SKY/WX    TMP DP  RH WIND       PRES   REMARKS
ALGONA *       CLEAR     64  63  94 NW7       29.90R
CLARION *      CLEAR     63  61  94 NW5       29.89R FOG
ESTHERVILLE    PTCLDY    61  60  97 NW7       29.91R FOG
FORT DODGE *   PTCLDY    63  59  88 NW6       29.90S
MASON CITY     CLEAR     64  63  96 NW8       29.89R FOG
FOREST CITY *  CLEAR     63  63 100 NW3       29.88R FOG
IOWA FALLS *     N/A     61  61 100 NW3       29.88R FOG
$$

IAZ007>011-017>019-026>030-037>042-050>054-066-301200-
   NORTHEAST IOWA

CITY           SKY/WX    TMP DP  RH WIND       PRES   REMARKS
CEDAR RAPIDS   CLEAR     60  60 100 CALM      29.83R HAZE
CHARLES CITY * CLEAR     57  57 100 NW3       29.86S FOG
CLINTON *      CLEAR     61  57  88 N3        29.85S
DECORAH *        N/A    N/A N/A N/A MISG        N/A
DUBUQUE        PTCLDY    60  56  86 CALM      29.84R
MONTICELLO *   MOCLDY    61 N/A N/A CALM      29.84R HAZE
OELWEIN *      CLEAR     59  59 100 NE7       29.86R
WATERLOO       CLEAR     59  58  96 N3        29.84R FOG
$$

IAZ064-065-067-068-078-301200-
   EAST CENTRAL IOWA

CITY           SKY/WX    TMP DP  RH WIND       PRES   REMARKS
DAVENPORT      MOCLDY    62  60  93 W5        29.84R FOG
IOWA CITY      CLEAR     61  59  93 CALM      29.84R FOG
MT. PLEASANT * CLEAR     66  63  88 SW5       29.85R FOG
MUSCATINE *    CLEAR     63  61  94 NE5       29.84R
QUAD CITIES    MOCLDY    62  59  90 CALM      29.83R FOG
$$

IAZ062-063-075>077-085>089-095>099-301200-
   SOUTHEAST IOWA

CITY           SKY/WX    TMP DP  RH WIND       PRES   REMARKS
BURLINGTON     FOG       63  63 100 W3        29.84S VSB 1/2
FAIRFIELD *    CLEAR     64  63  94 W6        29.85S FOG
FORT MADISON * CLEAR     64  64 100 SW5       29.86R
KEOKUK *       CLEAR     64  64 100 SW6       29.85R
OSKALOOSA *      N/A     63  61  94 W3        29.86R
CENTERVILLE *  CLEAR     64  63  94 W6        29.90R
OTTUMWA        CLEAR     65  63  93 W8        29.85R
WASHINGTON *   CLEAR     64  64 100 W7        29.85R FOG
$$

ABBREVIATIONS USED IN REMARKS
   TC - TEMPERATURES IN CELSIUS
  WCI - WIND CHILL INDEX
   HX - HEAT INDEX
  VSB - VISIBILITY
$$



USA.gov is the U.S. government's official web portal to all federal, state and local government web resources and services.